Time,TemperatureF,DewpointF,PressureIn,WindDirection,WindDirectionDegrees,WindSpeedMPH,WindSpeedGustMPH,Humidity,HourlyPrecipIn,Conditions,Clouds,dailyrainin,SoftwareType,DateUTC
2013-06-03 00:02:00,56.0,51.0,30.03,South,171,0.0,-999.0,82,-99.99,,,-99.99,,2013-06-03 07:02:00,
2013-06-03 00:11:00,56.0,51.0,30.03,South,171,0.0,-999.0,82,-99.99,,,-99.99,,2013-06-03 07:11:00,
2013-06-03 00:22:00,56.0,51.0,30.03,South,171,0.0,-999.0,82,-99.99,,,-99.99,,2013-06-03 07:22:00,
2013-06-03 00:32:00,55.0,50.0,30.03,South,171,0.0,-999.0,83,-99.99,,,-99.99,,2013-06-03 07:32:00,
2013-06-03 00:42:00,55.0,50.0,30.03,South,171,0.0,-999.0,83,-99.99,,,-99.99,,2013-06-03 07:42:00,
2013-06-03 00:52:00,54.0,50.0,30.03,South,171,0.0,-999.0,85,-99.99,,,-99.99,,2013-06-03 07:52:00,
2013-06-03 01:01:00,54.0,50.0,30.03,South,171,0.0,-999.0,85,-99.99,,,-99.99,,2013-06-03 08:01:00,
2013-06-03 01:12:00,54.0,50.0,30.03,South,171,0.0,-999.0,85,-99.99,,,-99.99,,2013-06-03 08:12:00,
2013-06-03 01:21:00,54.0,50.0,30.03,South,171,0.0,-999.0,86,-99.99,,,-99.99,,2013-06-03 08:21:00,
2013-06-03 01:32:00,53.0,49.0,30.03,South,171,0.0,-999.0,86,-99.99,,,-99.99,,2013-06-03 08:32:00,
2013-06-03 01:42:00,53.0,49.0,30.03,South,171,0.0,-999.0,86,-99.99,,,-99.99,,2013-06-03 08:42:00,
2013-06-03 01:52:00,53.0,49.0,30.03,South,171,0.0,-999.0,86,-99.99,,,-99.99,,2013-06-03 08:52:00,
2013-06-03 02:02:00,53.0,49.0,30.03,South,171,0.0,-999.0,86,-99.99,,,-99.99,,2013-06-03 09:02:00,
2013-06-03 02:11:00,53.0,49.0,30.03,South,171,0.0,-999.0,86,-99.99,,,-99.99,,2013-06-03 09:11:00,
2013-06-03 02:22:00,53.0,50.0,30.03,South,171,0.0,-999.0,88,-99.99,,,-99.99,,2013-06-03 09:22:00,
2013-06-03 02:33:00,52.0,49.0,30.03,South,171,0.0,-999.0,88,-99.99,,,-99.99,,2013-06-03 09:33:00,
2013-06-03 02:42:00,52.0,49.0,30.03,South,171,0.0,-999.0,88,-99.99,,,-99.99,,2013-06-03 09:42:00,
2013-06-03 02:52:00,52.0,49.0,30.03,South,171,0.0,-999.0,88,-99.99,,,-99.99,,2013-06-03 09:52:00,
2013-06-03 03:02:00,52.0,49.0,30.03,South,171,0.0,-999.0,90,-99.99,,,-99.99,,2013-06-03 10:02:00,
2013-06-03 03:12:00,52.0,49.0,30.03,South,171,0.0,-999.0,90,-99.99,,,-99.99,,2013-06-03 10:12:00,
2013-06-03 03:22:00,52.0,49.0,30.03,South,171,0.0,-999.0,90,-99.99,,,-99.99,,2013-06-03 10:22:00,
2013-06-03 03:32:00,52.0,49.0,30.04,South,171,1.0,-999.0,91,-99.99,,,-99.99,,2013-06-03 10:32:00,
2013-06-03 03:42:00,52.0,49.0,30.04,South,171,1.0,-999.0,91,-99.99,,,-99.99,,2013-06-03 10:42:00,
2013-06-03 03:52:00,52.0,49.0,30.04,South,171,0.0,-999.0,91,-99.99,,,-99.99,,2013-06-03 10:52:00,
2013-06-03 04:02:00,52.0,49.0,30.04,South,171,0.0,-999.0,91,-99.99,,,-99.99,,2013-06-03 11:02:00,
2013-06-03 04:12:00,52.0,49.0,30.04,South,171,0.0,-999.0,91,-99.99,,,-99.99,,2013-06-03 11:12:00,
2013-06-03 04:22:00,52.0,49.0,30.04,South,171,0.0,-999.0,91,-99.99,,,-99.99,,2013-06-03 11:22:00,
2013-06-03 04:32:00,51.0,48.0,30.04,South,171,0.0,-999.0,91,-99.99,,,-99.99,,2013-06-03 11:32:00,
2013-06-03 04:42:00,51.0,48.0,30.04,South,171,0.0,-999.0,91,-99.99,,,-99.99,,2013-06-03 11:42:00,
2013-06-03 04:52:00,51.0,48.0,30.04,South,171,0.0,-999.0,91,-99.99,,,-99.99,,2013-06-03 11:52:00,
2013-06-03 05:02:00,51.0,49.0,30.04,South,171,0.0,-999.0,92,-99.99,,,-99.99,,2013-06-03 12:02:00,
2013-06-03 05:12:00,51.0,49.0,30.04,South,171,0.0,-999.0,92,-99.99,,,-99.99,,2013-06-03 12:12:00,
2013-06-03 05:21:00,51.0,49.0,30.04,South,171,0.0,-999.0,93,-99.99,,,-99.99,,2013-06-03 12:21:00,
2013-06-03 05:32:00,51.0,49.0,30.04,South,169,0.0,-999.0,93,-99.99,,,-99.99,,2013-06-03 12:32:00,
2013-06-03 05:42:00,51.0,49.0,30.04,South,169,0.0,-999.0,93,-99.99,,,-99.99,,2013-06-03 12:42:00,
2013-06-03 05:52:00,51.0,49.0,30.04,South,170,1.0,-999.0,93,-99.99,,,-99.99,,2013-06-03 12:52:00,
2013-06-03 06:02:00,51.0,49.0,30.05,SSE,168,1.0,-999.0,94,-99.99,,,-99.99,,2013-06-03 13:02:00,
2013-06-03 06:12:00,51.0,49.0,30.05,SSE,168,1.0,-999.0,94,-99.99,,,-99.99,,2013-06-03 13:12:00,
2013-06-03 06:22:00,51.0,49.0,30.05,South,169,1.0,-999.0,94,-99.99,,,-99.99,,2013-06-03 13:22:00,
2013-06-03 06:32:00,52.0,50.0,30.06,South,173,1.0,-999.0,94,-99.99,,,-99.99,,2013-06-03 13:32:00,
2013-06-03 06:42:00,52.0,50.0,30.06,South,173,1.0,-999.0,94,-99.99,,,-99.99,,2013-06-03 13:42:00,
2013-06-03 06:52:00,52.0,50.0,30.06,South,173,1.0,-999.0,94,-99.99,,,-99.99,,2013-06-03 13:52:00,
2013-06-03 07:02:00,52.0,50.0,30.06,South,175,2.0,-999.0,93,-99.99,,,-99.99,,2013-06-03 14:02:00,
2013-06-03 07:22:00,52.0,50.0,30.06,South,175,0.0,-999.0,94,-99.99,,,-99.99,,2013-06-03 14:22:00,
2013-06-03 07:32:00,52.0,50.0,30.07,South,189,2.0,-999.0,93,-99.99,,,-99.99,,2013-06-03 14:32:00,
2013-06-03 07:42:00,52.0,50.0,30.07,South,189,2.0,-999.0,93,-99.99,,,-99.99,,2013-06-03 14:42:00,
2013-06-03 07:52:00,53.0,51.0,30.07,South,177,2.0,-999.0,92,-99.99,,,-99.99,,2013-06-03 14:52:00,
2013-06-03 08:02:00,53.0,51.0,30.07,South,176,1.0,-999.0,92,-99.99,,,-99.99,,2013-06-03 15:02:00,
2013-06-03 08:12:00,53.0,51.0,30.07,South,176,1.0,-999.0,92,-99.99,,,-99.99,,2013-06-03 15:12:00,
2013-06-03 08:22:00,53.0,51.0,30.07,South,180,1.0,-999.0,92,-99.99,,,-99.99,,2013-06-03 15:22:00,
2013-06-03 08:33:00,54.0,51.0,30.08,SSE,153,2.0,-999.0,91,-99.99,,,-99.99,,2013-06-03 15:33:00,
2013-06-03 08:43:00,54.0,51.0,30.08,SSE,153,2.0,-999.0,91,-99.99,,,-99.99,,2013-06-03 15:43:00,
2013-06-03 08:53:00,54.0,51.0,30.08,South,173,1.0,-999.0,90,-99.99,,,-99.99,,2013-06-03 15:53:00,
2013-06-03 09:03:00,54.0,51.0,30.09,SSE,155,2.0,-999.0,89,-99.99,,,-99.99,,2013-06-03 16:03:00,
2013-06-03 09:12:00,54.0,51.0,30.09,SSE,155,2.0,-999.0,89,-99.99,,,-99.99,,2013-06-03 16:12:00,
2013-06-03 09:22:00,54.0,51.0,30.09,South,173,2.0,-999.0,89,-99.99,,,-99.99,,2013-06-03 16:22:00,
2013-06-03 09:32:00,54.0,51.0,30.09,South,184,2.0,-999.0,88,-99.99,,,-99.99,,2013-06-03 16:32:00,
2013-06-03 09:42:00,54.0,51.0,30.09,South,178,3.0,-999.0,89,-99.99,,,-99.99,,2013-06-03 16:42:00,
2013-06-03 09:53:00,54.0,51.0,30.09,South,178,3.0,-999.0,89,-99.99,,,-99.99,,2013-06-03 16:53:00,
2013-06-03 10:02:00,54.0,51.0,30.09,South,175,3.0,-999.0,89,-99.99,,,-99.99,,2013-06-03 17:02:00,
2013-06-03 10:12:00,54.0,51.0,30.09,South,175,3.0,-999.0,89,-99.99,,,-99.99,,2013-06-03 17:12:00,
2013-06-03 10:22:00,55.0,51.0,30.09,ENE,61,2.0,-999.0,87,-99.99,,,-99.99,,2013-06-03 17:22:00,
2013-06-03 10:33:00,55.0,51.0,30.09,WSW,246,2.0,-999.0,87,-99.99,,,-99.99,,2013-06-03 17:33:00,
2013-06-03 10:42:00,55.0,51.0,30.09,WSW,246,2.0,-999.0,87,-99.99,,,-99.99,,2013-06-03 17:42:00,
2013-06-03 10:52:00,56.0,52.0,30.08,South,171,3.0,-999.0,86,-99.99,,,-99.99,,2013-06-03 17:52:00,
2013-06-03 11:02:00,57.0,52.0,30.08,SSW,192,3.0,-999.0,84,-99.99,,,-99.99,,2013-06-03 18:02:00,
2013-06-03 11:12:00,57.0,52.0,30.08,South,186,2.0,-999.0,84,-99.99,,,-99.99,,2013-06-03 18:12:00,
2013-06-03 11:22:00,57.0,52.0,30.08,South,186,2.0,-999.0,84,-99.99,,,-99.99,,2013-06-03 18:22:00,
2013-06-03 11:32:00,58.0,53.0,30.08,West,261,2.0,-999.0,82,-99.99,,,-99.99,,2013-06-03 18:32:00,
2013-06-03 11:42:00,58.0,53.0,30.08,West,261,2.0,-999.0,82,-99.99,,,-99.99,,2013-06-03 18:42:00,
2013-06-03 11:52:00,60.0,54.0,30.08,South,180,2.0,-999.0,80,-99.99,,,-99.99,,2013-06-03 18:52:00,
2013-06-03 12:03:00,62.0,55.0,30.08,SSE,159,2.0,-999.0,77,-99.99,,,-99.99,,2013-06-03 19:03:00,
2013-06-03 12:12:00,62.0,55.0,30.08,SSE,159,2.0,-999.0,77,-99.99,,,-99.99,,2013-06-03 19:12:00,
2013-06-03 12:22:00,62.0,54.0,30.08,SW,217,2.0,-999.0,76,-99.99,,,-99.99,,2013-06-03 19:22:00,
2013-06-03 12:32:00,61.0,53.0,30.08,SSE,167,3.0,-999.0,75,-99.99,,,-99.99,,2013-06-03 19:32:00,
2013-06-03 12:42:00,61.0,53.0,30.08,SSE,167,3.0,-999.0,75,-99.99,,,-99.99,,2013-06-03 19:42:00,
2013-06-03 12:52:00,62.0,55.0,30.07,SSE,150,2.0,-999.0,77,-99.99,,,-99.99,,2013-06-03 19:52:00,
2013-06-03 13:02:00,63.0,55.0,30.07,SSW,204,2.0,-999.0,75,-99.99,,,-99.99,,2013-06-03 20:02:00,
2013-06-03 13:12:00,63.0,55.0,30.07,SSW,204,2.0,-999.0,75,-99.99,,,-99.99,,2013-06-03 20:12:00,
2013-06-03 13:22:00,64.0,55.0,30.06,South,171,3.0,-999.0,73,-99.99,,,-99.99,,2013-06-03 20:22:00,
2013-06-03 13:32:00,64.0,55.0,30.06,WNW,299,3.0,-999.0,72,-99.99,,,-99.99,,2013-06-03 20:32:00,
2013-06-03 13:42:00,64.0,55.0,30.06,WNW,299,3.0,-999.0,72,-99.99,,,-99.99,,2013-06-03 20:42:00,
2013-06-03 13:52:00,65.0,55.0,30.06,South,186,3.0,-999.0,69,-99.99,,,-99.99,,2013-06-03 20:52:00,
2013-06-03 14:02:00,66.0,55.0,30.06,South,190,3.0,-999.0,68,-99.99,,,-99.99,,2013-06-03 21:02:00,
2013-06-03 14:12:00,66.0,55.0,30.06,South,190,3.0,-999.0,68,-99.99,,,-99.99,,2013-06-03 21:12:00,
2013-06-03 14:22:00,66.0,54.0,30.06,SSW,192,2.0,-999.0,66,-99.99,,,-99.99,,2013-06-03 21:22:00,
2013-06-03 14:32:00,68.0,57.0,30.06,South,176,3.0,-999.0,69,-99.99,,,-99.99,,2013-06-03 21:32:00,
2013-06-03 14:43:00,68.0,57.0,30.06,South,176,3.0,-999.0,69,-99.99,,,-99.99,,2013-06-03 21:43:00,
2013-06-03 14:52:00,69.0,57.0,30.05,South,175,3.0,-999.0,65,-99.99,,,-99.99,,2013-06-03 21:52:00,
2013-06-03 15:02:00,70.0,57.0,30.05,WSW,248,2.0,-999.0,63,-99.99,,,-99.99,,2013-06-03 22:02:00,
2013-06-03 15:12:00,70.0,57.0,30.05,WSW,248,2.0,-999.0,63,-99.99,,,-99.99,,2013-06-03 22:12:00,
2013-06-03 15:22:00,70.0,56.0,30.04,SW,234,2.0,-999.0,62,-99.99,,,-99.99,,2013-06-03 22:22:00,
2013-06-03 15:32:00,70.0,55.0,30.04,South,178,1.0,-999.0,60,-99.99,,,-99.99,,2013-06-03 22:32:00,
2013-06-03 15:42:00,70.0,55.0,30.04,South,178,1.0,-999.0,60,-99.99,,,-99.99,,2013-06-03 22:42:00,
2013-06-03 15:52:00,69.0,55.0,30.04,North,355,1.0,-999.0,61,-99.99,,,-99.99,,2013-06-03 22:52:00,
2013-06-03 16:02:00,70.0,56.0,30.03,SSE,167,1.0,-999.0,61,-99.99,,,-99.99,,2013-06-03 23:02:00,
2013-06-03 16:12:00,70.0,56.0,30.03,SSE,167,1.0,-999.0,61,-99.99,,,-99.99,,2013-06-03 23:12:00,
2013-06-03 16:22:00,71.0,56.0,30.03,South,179,2.0,-999.0,59,-99.99,,,-99.99,,2013-06-03 23:22:00,
2013-06-03 16:32:00,71.0,55.0,30.03,NE,38,2.0,-999.0,57,-99.99,,,-99.99,,2013-06-03 23:32:00,
2013-06-03 16:42:00,71.0,55.0,30.03,NE,38,2.0,-999.0,57,-99.99,,,-99.99,,2013-06-03 23:42:00,
2013-06-03 16:52:00,72.0,56.0,30.03,SSE,168,2.0,-999.0,58,-99.99,,,-99.99,,2013-06-03 23:52:00,
2013-06-03 17:02:00,72.0,56.0,30.02,SSW,198,2.0,-999.0,57,-99.99,,,-99.99,,2013-06-04 00:02:00,
2013-06-03 17:22:00,71.0,55.0,30.02,South,185,3.0,-999.0,58,-99.99,,,-99.99,,2013-06-04 00:22:00,
2013-06-03 17:32:00,70.0,55.0,30.02,South,181,1.0,-999.0,58,-99.99,,,-99.99,,2013-06-04 00:32:00,
2013-06-03 17:42:00,70.0,55.0,30.02,South,181,1.0,-999.0,58,-99.99,,,-99.99,,2013-06-04 00:42:00,
2013-06-03 17:52:00,70.0,54.0,30.02,South,190,2.0,-999.0,57,-99.99,,,-99.99,,2013-06-04 00:52:00,
2013-06-03 18:02:00,70.0,55.0,30.02,South,171,2.0,-999.0,58,-99.99,,,-99.99,,2013-06-04 01:02:00,
2013-06-03 18:12:00,70.0,55.0,30.02,South,171,2.0,-999.0,58,-99.99,,,-99.99,,2013-06-04 01:12:00,
2013-06-03 18:22:00,70.0,54.0,30.02,South,175,2.0,-999.0,56,-99.99,,,-99.99,,2013-06-04 01:22:00,
2013-06-03 18:32:00,70.0,52.0,30.02,South,186,0.0,-999.0,53,-99.99,,,-99.99,,2013-06-04 01:32:00,
2013-06-03 18:42:00,70.0,52.0,30.02,South,186,0.0,-999.0,53,-99.99,,,-99.99,,2013-06-04 01:42:00,
2013-06-03 18:52:00,70.0,52.0,30.02,NE,40,1.0,-999.0,52,-99.99,,,-99.99,,2013-06-04 01:52:00,
2013-06-03 19:02:00,71.0,54.0,30.02,SW,233,1.0,-999.0,54,-99.99,,,-99.99,,2013-06-04 02:02:00,
2013-06-03 19:12:00,71.0,54.0,30.02,SW,233,1.0,-999.0,54,-99.99,,,-99.99,,2013-06-04 02:12:00,
2013-06-03 19:21:00,71.0,54.0,30.02,NNE,17,0.0,-999.0,54,-99.99,,,-99.99,,2013-06-04 02:21:00,
2013-06-03 19:32:00,70.0,55.0,30.02,NW,314,0.0,-999.0,60,-99.99,,,-99.99,,2013-06-04 02:32:00,
2013-06-03 19:42:00,70.0,55.0,30.02,NW,314,0.0,-999.0,60,-99.99,,,-99.99,,2013-06-04 02:42:00,
2013-06-03 19:52:00,69.0,54.0,30.03,North,11,1.0,-999.0,59,-99.99,,,-99.99,,2013-06-04 02:52:00,
2013-06-03 20:02:00,68.0,53.0,30.03,North,355,1.0,-999.0,58,-99.99,,,-99.99,,2013-06-04 03:02:00,
2013-06-03 20:12:00,68.0,53.0,30.03,North,355,1.0,-999.0,58,-99.99,,,-99.99,,2013-06-04 03:12:00,
2013-06-03 20:22:00,67.0,54.0,30.03,North,360,1.0,-999.0,63,-99.99,,,-99.99,,2013-06-04 03:22:00,
2013-06-03 20:32:00,66.0,54.0,30.03,North,5,1.0,-999.0,65,-99.99,,,-99.99,,2013-06-04 03:32:00,
2013-06-03 20:43:00,66.0,54.0,30.03,North,5,1.0,-999.0,65,-99.99,,,-99.99,,2013-06-04 03:43:00,
2013-06-03 20:53:00,66.0,55.0,30.03,North,5,0.0,-999.0,67,-99.99,,,-99.99,,2013-06-04 03:53:00,
2013-06-03 21:02:00,65.0,55.0,30.03,NNE,19,1.0,-999.0,70,-99.99,,,-99.99,,2013-06-04 04:02:00,
2013-06-03 21:13:00,65.0,55.0,30.03,NNE,19,1.0,-999.0,70,-99.99,,,-99.99,,2013-06-04 04:13:00,
2013-06-03 21:23:00,64.0,55.0,30.04,NNW,337,0.0,-999.0,72,-99.99,,,-99.99,,2013-06-04 04:23:00,
2013-06-03 21:33:00,63.0,54.0,30.04,North,360,0.0,-999.0,73,-99.99,,,-99.99,,2013-06-04 04:33:00,
2013-06-03 21:42:00,63.0,54.0,30.04,North,360,0.0,-999.0,73,-99.99,,,-99.99,,2013-06-04 04:42:00,
2013-06-03 21:53:00,63.0,55.0,30.04,North,360,0.0,-999.0,75,-99.99,,,-99.99,,2013-06-04 04:53:00,
2013-06-03 22:02:00,62.0,55.0,30.04,North,360,0.0,-999.0,77,-99.99,,,-99.99,,2013-06-04 05:02:00,
2013-06-03 22:12:00,62.0,55.0,30.04,North,360,0.0,-999.0,77,-99.99,,,-99.99,,2013-06-04 05:12:00,
2013-06-03 22:22:00,61.0,54.0,30.05,North,360,0.0,-999.0,78,-99.99,,,-99.99,,2013-06-04 05:22:00,
2013-06-03 22:32:00,60.0,54.0,30.04,North,360,0.0,-999.0,80,-99.99,,,-99.99,,2013-06-04 05:32:00,
2013-06-03 22:42:00,60.0,54.0,30.04,North,360,0.0,-999.0,80,-99.99,,,-99.99,,2013-06-04 05:42:00,
2013-06-03 22:52:00,59.0,53.0,30.04,North,360,0.0,-999.0,81,-99.99,,,-99.99,,2013-06-04 05:52:00,
2013-06-03 23:02:00,59.0,54.0,30.05,North,360,0.0,-999.0,83,-99.99,,,-99.99,,2013-06-04 06:02:00,
2013-06-03 23:12:00,59.0,54.0,30.05,North,360,0.0,-999.0,83,-99.99,,,-99.99,,2013-06-04 06:12:00,
2013-06-03 23:22:00,58.0,53.0,30.05,North,360,0.0,-999.0,83,-99.99,,,-99.99,,2013-06-04 06:22:00,
2013-06-03 23:32:00,58.0,53.0,30.05,NW,304,0.0,-999.0,83,-99.99,,,-99.99,,2013-06-04 06:32:00,
2013-06-03 23:42:00,58.0,53.0,30.05,NW,304,0.0,-999.0,83,-99.99,,,-99.99,,2013-06-04 06:42:00,
2013-06-03 23:52:00,58.0,53.0,30.05,NW,305,0.0,-999.0,83,-99.99,,,-99.99,,2013-06-04 06:52:00,